Location: ???????
(54.6339°N, 39.4245°E)
Time: 03:18:40
(UTC+00:00)

COSMOS 2455 - Pass Details

Date: 19 May 2025
Orbit: 900 x 908 km, 67.1° (Epoch: 15 June)

Event Time Altitude Azimuth Distance (km) Brightness Sun altitude
Rises 23:33:32 0° 318° (NW) 3,546 6.2 -10.0°
Reaches altitude 10° 23:36:03 10° 319° (NW) 2,602 5.5 -9.8°
Maximum altitude 23:42:07 90° 48° (NE) 917 2.9 -9.3°
Drops below altitude 10° 23:48:09 10° 141° (SE) 2,591 5.1 -8.8°
Sets 23:50:39 0° 141° (SE) 3,529 5.8 -8.6°
